Location: Township of Marena
(38.1747°N, 99.6798°W)
Time: 11:08:54
(UTC+00:00)

Meteor 1-16 Rocket - Pass Details

Date: 26 October 2020
Orbit: 790 x 908 km, 81.2° (Epoch: 25 November)

Event Time Altitude Azimuth Distance (km) Brightness Sun altitude
Rises 11:08:16 0° 346° (NNW) 3,297 7.2 -22.4°
Reaches altitude 10° 11:10:41 10° 342° (NNW) 2,360 6.3 -21.9°
Maximum altitude 11:15:50 55° 265° (W) 951 4.1 -20.9°
Drops below altitude 10° 11:21:00 10° 189° (S) 2,363 6.4 -19.9°
Sets 11:23:25 0° 185° (S) 3,300 7.2 -19.4°
